DMSP 5D-3 F16 (USA 172)

Last updated on Fri Jul 11 2025 00:02:20 GMT+0000 (Coordinated Universal Time)

1 28054U 03048A 25191.64461905 -.00000015 00000+0 16116-4 0 9992 2 28054 99.0121 207.7594 0007934 40.9908 68.5030 14.14359832121208
UTC large
Height (km)
Speed (km/s)
/
Latitude / Longitude
Inclination (degrees)
Orbital Period (minutes)
Azimuth
Elevation
Range (km)
Doppler Factor

Next 0 passes for location: London (51.5072 / 0.1276)

Sorry there are no passes over London.